Richmond, KY

7:50 AM EST on January 18, 2018 (GMT -0500)
Richmond

Weather History for KI39 - September, 2014

Change the Weather History Date:

Wednesday, September 3, 2014

  Actual Average (KLOZ) Record (KLOZ)
Temperature  
Mean Temperature 75 °F -  
Max Temperature 82 °F 82 °F 96 °F (2011)
Min Temperature 68 °F 61 °F 47 °F (1967)
Cooling Degree Days 10    
Growing Degree Days 25 (Base 50)    
Moisture  
Dew Point 68 °F    
Average Humidity 83    
Maximum Humidity 94    
Minimum Humidity 62    
Precipitation  
Precipitation 0.00 in - - ()
Sea Level Pressure  
Sea Level Pressure 30.07 in    
Wind  
Wind Speed 2 mph (ESE)    
Max Wind Speed 7 mph    
Max Gust Speed -    
Visibility 8 miles    
Events      
Averages and records for this station are not official NWS values.
T = Trace of Precipitation, MM = Missing Value Source: NWS Daily Summary

Daily Weather History Graph

Daily Weather History Graph

Search for Another Location

Airport or City:

Trip Planner

Search our weather history database for the weather conditions in past years. The results will help you decide how hot, cold, wet, or windy it might be!

Date:

Astronomy

Sep. 03, 2014 Rise Set
Actual Time 7:09 AM EDT 8:03 PM EDT
Civil Twilight 6:42 AM EDT 8:30 PM EDT
Nautical Twilight 6:10 AM EDT 9:01 PM EDT
Astronomical Twilight 5:38 AM EDT 9:34 PM EDT
Moon 3:41 PM EDT (9/3) 1:05 AM EDT (9/3)
Length of Visible Light 13h 47m
Length of Day
12h 54m
Waxing Gibbous, 63% of the Moon is Illuminated
Sep 3
Waxing Gibbous
Sep 8
Full
Sep 15
Last Quarter
Sep 24
New
Oct 1
First Quarter

Hourly Weather History & Observations

Time (EDT) Temp. Heat Index Dew Point Humidity Pressure Visibility Wind Dir Wind Speed Gust Speed Precip Events Conditions
12:15 AM 69.8 °F - 66.2 °F 88% 30.03 in 10.0 mi Calm Calm - N/A   Scattered Clouds
12:35 AM 69.8 °F - 66.2 °F 88% 30.03 in 10.0 mi South 5.8 mph - N/A   Scattered Clouds
12:55 AM 69.8 °F - 66.2 °F 88% 30.03 in 10.0 mi SSW 3.5 mph - N/A   Scattered Clouds
1:15 AM 69.8 °F - 66.2 °F 88% 30.04 in 10.0 mi SSW 5.8 mph - N/A   Mostly Cloudy
1:35 AM 69.8 °F - 68.0 °F 94% 30.04 in 10.0 mi SSW 5.8 mph - N/A   Mostly Cloudy
1:55 AM 69.8 °F - 68.0 °F 94% 30.03 in 10.0 mi South 4.6 mph - N/A   Scattered Clouds
2:15 AM 69.8 °F - 66.2 °F 88% 30.03 in 10.0 mi SSW 4.6 mph - N/A   Clear
2:35 AM 69.8 °F - 66.2 °F 88% 30.03 in 10.0 mi South 4.6 mph - N/A   Clear
2:55 AM 69.8 °F - 66.2 °F 88% 30.03 in 10.0 mi SSW 3.5 mph - N/A   Clear
3:15 AM 69.8 °F - 66.2 °F 88% 30.03 in 10.0 mi Calm Calm - N/A   Clear
3:35 AM 68.0 °F - 66.2 °F 94% 30.04 in 10.0 mi Calm Calm - N/A   Clear
3:55 AM 68.0 °F - 66.2 °F 94% 30.04 in 7.0 mi Calm Calm - N/A   Mostly Cloudy
4:15 AM 69.8 °F - 66.2 °F 88% 30.03 in 10.0 mi Calm Calm - N/A   Overcast
4:35 AM 69.8 °F - 66.2 °F 88% 30.03 in 10.0 mi Calm Calm - N/A   Overcast
4:55 AM 68.0 °F - 66.2 °F 94% 30.03 in 10.0 mi Calm Calm - N/A   Overcast
5:15 AM 69.8 °F - 66.2 °F 88% 30.04 in 10.0 mi Calm Calm - N/A   Overcast
5:35 AM 69.8 °F - 66.2 °F 88% 30.04 in 10.0 mi Calm Calm - N/A   Overcast
5:55 AM 69.8 °F - 66.2 °F 88% 30.05 in 10.0 mi Calm Calm - N/A   Overcast
6:15 AM 69.8 °F - 66.2 °F 88% 30.05 in 10.0 mi Calm Calm - N/A   Overcast
6:35 AM 69.8 °F - 66.2 °F 88% 30.06 in 10.0 mi Calm Calm - N/A   Overcast
6:55 AM 69.8 °F - 66.2 °F 88% 30.07 in 10.0 mi Calm Calm - N/A   Overcast
7:15 AM 69.8 °F - 68.0 °F 94% 30.07 in 10.0 mi Calm Calm - N/A   Overcast
7:35 AM 69.8 °F - 68.0 °F 94% 30.08 in 10.0 mi Calm Calm - N/A   Overcast
7:55 AM 69.8 °F - 68.0 °F 94% 30.08 in 10.0 mi Calm Calm - N/A   Overcast
8:15 AM 69.8 °F - 68.0 °F 94% 30.08 in 5.0 mi Calm Calm - N/A   Overcast
8:35 AM 69.8 °F - 68.0 °F 94% 30.08 in 2.5 mi Calm Calm - N/A   Overcast
8:55 AM 69.8 °F - 68.0 °F 94% 30.09 in 4.0 mi Calm Calm - N/A   Overcast
9:15 AM 69.8 °F - 68.0 °F 94% 30.09 in 3.0 mi Calm Calm - N/A   Overcast
9:35 AM 71.6 °F - 68.0 °F 88% 30.09 in 5.0 mi NE 3.5 mph - N/A   Overcast
9:55 AM 71.6 °F - 68.0 °F 88% 30.10 in 5.0 mi Calm Calm - N/A   Overcast
10:15 AM 71.6 °F - 68.0 °F 88% 30.10 in 5.0 mi NE 3.5 mph - N/A   Overcast
10:35 AM 71.6 °F - 68.0 °F 88% 30.10 in 5.0 mi Calm Calm - N/A   Overcast
10:55 AM 73.4 °F - 68.0 °F 83% 30.10 in 7.0 mi Calm Calm - N/A   Overcast
11:15 AM 73.4 °F - 68.0 °F 83% 30.11 in 7.0 mi NNE 3.5 mph - N/A   Overcast
11:35 AM 73.4 °F - 68.0 °F 83% 30.11 in 7.0 mi East 3.5 mph - N/A   Overcast
11:55 AM 73.4 °F - 68.0 °F 83% 30.11 in 7.0 mi ENE 4.6 mph - N/A   Overcast
12:15 PM 73.4 °F - 68.0 °F 83% 30.10 in 5.0 mi ENE 5.8 mph - N/A   Overcast
12:35 PM 73.4 °F - 68.0 °F 83% 30.10 in 5.0 mi ENE 5.8 mph - N/A   Overcast
12:55 PM 77.0 °F - 68.0 °F 74% 30.10 in 7.0 mi East 5.8 mph - N/A   Overcast
1:15 PM 77.0 °F - 68.0 °F 74% 30.10 in 5.0 mi ESE 5.8 mph - N/A   Overcast
1:35 PM 77.0 °F - 68.0 °F 74% 30.10 in 7.0 mi East 5.8 mph - N/A   Overcast
1:55 PM 77.0 °F - 68.0 °F 74% 30.10 in 7.0 mi East 5.8 mph - N/A   Overcast
2:15 PM 78.8 °F - 68.0 °F 69% 30.10 in 7.0 mi East 5.8 mph - N/A   Overcast
2:35 PM 78.8 °F - 68.0 °F 69% 30.10 in 7.0 mi ESE 5.8 mph - N/A   Overcast
2:55 PM 78.8 °F - 68.0 °F 69% 30.10 in 7.0 mi ESE 3.5 mph - N/A   Overcast
3:15 PM 80.6 °F 83.2 °F 68.0 °F 65% 30.10 in 7.0 mi Calm Calm - N/A   Overcast
3:35 PM 80.6 °F 83.9 °F 69.8 °F 70% 30.08 in 7.0 mi ESE 5.8 mph - N/A   Mostly Cloudy
3:55 PM 80.6 °F 83.9 °F 69.8 °F 70% 30.08 in 7.0 mi ESE 6.9 mph - N/A   Scattered Clouds
4:15 PM 80.6 °F 83.9 °F 69.8 °F 70% 30.07 in 10.0 mi ESE 4.6 mph - N/A   Scattered Clouds
4:35 PM 80.6 °F 83.9 °F 69.8 °F 70% 30.06 in 10.0 mi ESE 4.6 mph - N/A   Mostly Cloudy
4:55 PM 80.6 °F 83.2 °F 68.0 °F 65% 30.06 in 7.0 mi ESE 3.5 mph - N/A   Scattered Clouds
5:15 PM 80.6 °F 83.2 °F 68.0 °F 65% 30.06 in 7.0 mi SE 3.5 mph - N/A   Scattered Clouds
5:35 PM 82.4 °F 85.4 °F 68.0 °F 62% 30.06 in 10.0 mi East 3.5 mph - N/A   Clear
5:55 PM 82.4 °F 86.3 °F 69.8 °F 66% 30.05 in 10.0 mi ENE 4.6 mph - N/A   Scattered Clouds
6:15 PM 80.6 °F 83.2 °F 68.0 °F 65% 30.06 in 10.0 mi East 4.6 mph - N/A   Scattered Clouds
6:35 PM 78.8 °F - 68.0 °F 69% 30.05 in 7.0 mi Calm Calm - N/A   Scattered Clouds
6:55 PM 78.8 °F - 68.0 °F 69% 30.05 in 10.0 mi Calm Calm - N/A   Clear
7:15 PM 78.8 °F - 68.0 °F 69% 30.05 in 10.0 mi Calm Calm - N/A   Clear
7:55 PM 77.0 °F - 69.8 °F 78% 30.06 in 7.0 mi East 3.5 mph - N/A   Clear
8:15 PM 75.2 °F - 68.0 °F 78% 30.06 in 7.0 mi Calm Calm - N/A   Clear
8:35 PM 75.2 °F - 68.0 °F 78% 30.06 in 7.0 mi East 3.5 mph - N/A   Clear
8:55 PM 73.4 °F - 68.0 °F 83% 30.07 in 7.0 mi SE 4.6 mph - N/A   Clear
9:15 PM 71.6 °F - 68.0 °F 88% 30.07 in 7.0 mi ESE 3.5 mph - N/A   Clear
9:35 PM 71.6 °F - 68.0 °F 88% 30.07 in 5.0 mi ESE 3.5 mph - N/A   Clear
9:55 PM 71.6 °F - 68.0 °F 88% 30.08 in 7.0 mi Calm Calm - N/A   Clear
10:15 PM 71.6 °F - 68.0 °F 88% 30.09 in 5.0 mi Calm Calm - N/A   Clear
10:35 PM 71.6 °F - 68.0 °F 88% 30.10 in 7.0 mi Calm Calm - N/A   Clear
10:55 PM 71.6 °F - 68.0 °F 88% 30.10 in 5.0 mi Calm Calm - N/A   Clear
11:15 PM 71.6 °F - 68.0 °F 88% 30.10 in 5.0 mi Calm Calm - N/A   Clear
11:55 PM 69.8 °F - 68.0 °F 94% 30.10 in 2.5 mi Calm Calm - N/A   Clear